TimeCST,TemperatureF,Dew PointF,Humidity,Sea Level PressureIn,VisibilityMPH,Wind Direction,Wind SpeedMPH,Gust SpeedMPH,PrecipitationIn,Events,Conditions,WindDirDegrees,DateUTC
12:55 AM,28.9,26.1,89,30.30,10.0,WSW,5.8,-,N/A,,Clear,240,2013-12-27 06:55:00
1:55 AM,28.9,26.1,89,30.31,10.0,SW,6.9,-,N/A,,Clear,230,2013-12-27 07:55:00
2:55 AM,28.9,25.0,85,30.31,10.0,WSW,3.5,-,N/A,,Clear,250,2013-12-27 08:55:00
3:55 AM,28.0,25.0,88,30.30,10.0,WSW,5.8,-,N/A,,Clear,250,2013-12-27 09:55:00
4:55 AM,27.0,24.1,89,30.30,10.0,WSW,5.8,-,N/A,,Clear,250,2013-12-27 10:55:00
5:55 AM,25.0,21.9,88,30.32,10.0,WSW,5.8,-,N/A,,Clear,240,2013-12-27 11:55:00
6:55 AM,24.1,21.9,91,30.33,8.0,WSW,3.5,-,N/A,,Clear,250,2013-12-27 12:55:00
7:55 AM,23.0,19.9,88,30.33,4.0,SW,5.8,-,N/A,,Clear,220,2013-12-27 13:55:00
8:55 AM,28.9,26.1,89,30.34,8.0,SW,8.1,-,N/A,,Clear,220,2013-12-27 14:55:00
9:55 AM,35.1,28.0,76,30.35,10.0,WSW,6.9,-,N/A,,Clear,240,2013-12-27 15:55:00
10:55 AM,39.0,28.9,67,30.33,10.0,SW,8.1,-,N/A,,Clear,220,2013-12-27 16:55:00
11:55 AM,43.0,28.9,58,30.30,10.0,SW,11.5,-,N/A,,Clear,220,2013-12-27 17:55:00
12:55 PM,46.0,28.9,51,30.28,10.0,SW,10.4,-,N/A,,Clear,220,2013-12-27 18:55:00
1:55 PM,48.0,28.9,48,30.26,10.0,WSW,8.1,-,N/A,,Clear,240,2013-12-27 19:55:00
2:55 PM,48.0,28.0,46,30.25,10.0,SW,10.4,-,N/A,,Clear,220,2013-12-27 20:55:00
3:55 PM,48.0,28.9,48,30.24,10.0,SW,9.2,-,N/A,,Clear,220,2013-12-27 21:55:00
4:55 PM,44.1,28.0,53,30.24,10.0,SW,9.2,-,N/A,,Clear,220,2013-12-27 22:55:00
5:55 PM,42.1,30.0,62,30.24,10.0,SW,10.4,-,N/A,,Clear,220,2013-12-27 23:55:00
6:55 PM,42.1,33.1,70,30.23,10.0,SSW,10.4,-,N/A,,Clear,210,2013-12-28 00:55:00
7:55 PM,42.1,33.1,70,30.23,10.0,SSW,12.7,21.9,N/A,,Clear,210,2013-12-28 01:55:00
8:55 PM,41.0,33.1,73,30.23,10.0,SW,13.8,-,N/A,,Clear,220,2013-12-28 02:55:00
9:55 PM,41.0,33.1,73,30.22,10.0,SW,10.4,-,N/A,,Clear,230,2013-12-28 03:55:00
10:55 PM,37.9,32.0,79,30.21,10.0,SSW,6.9,-,N/A,,Clear,210,2013-12-28 04:55:00
11:55 PM,39.9,33.1,77,30.19,10.0,SW,8.1,-,N/A,,Clear,230,2013-12-28 05:55:00